Temperature
14 14 14 13 13 13 13 13 13 13 13 14 14 14 14 14 14 14 15 15 15 15 15 15 15 16 16 16 16 16 16 16 16 16 16 16 16 16
13 13 13 13 13 13 13 13 13 13 13 13 13 14 14 14 14 14 14 14 15 15 15 15 15 15 15 15 16 16 16 16 16 16 16 16 16 16
13 13 13 13 13 13 13 13 13 13 13 13 13 13 13 14 14 14 14 14 14 14 15 15 15 15 15 15 15 15 15 15 15 15 16 16 16 16
13 13 13 13 13 13 13 13 13 13 12 13 13 13 13 13 13 14 14 14 14 14 14 14 14 15 15 15 15 15 15 15 15 15 15 15 15 15
13 13 13 13 13 13 13 13 12 12 12 12 13 13 13 13 13 13 13 14 14 14 14 14 14 14 14 14 15 15 15 15 15 15 15 15 15 15
12 12 12 12 12 12 12 12 12 12 12 12 12 12 13 13 13 13 13 13 13 14 14 14 14 14 14 14 14 14 15 15 15 15 15 15 15 15
12 12 12 12 12 12 12 12 12 12 11 11 12 12 12 12 12 12 12 13 13 13 13 13 13 14 14 14 14 14 14 14 14 14 14 15 15 15
12 12 12 12 12 11 11 11 11 11 11 11 11 11 11 12 12 12 12 12 12 13 13 13 13 13 13 13 14 14 14 14 14 14 14 14 14 14
11 11 11 11 11 11 11 11 11 11 10 10 10 11 11 11 11 11 11 11 12 12 12 12 13 13 13 13 13 13 13 13 13 13 14 14 14 14
11 10 10 10 10 10 10 10 11 11 10 10 10 10 10 10 10 10 11 11 11 12 12 11 12 12 13 13 13 13 13 13 13 13 13 13 13 13
10 10 10 10 10 10 10 10 10 10 10 10 10 10 10 10 10 10 10 10 10 11 11 11 12 12 12 13 13 13 13 13 13 13 13 13 13 13
10 10 10 9 9 9 9 9 9 9 9 10 10 10 10 10 10 10 10 10 10 10 11 11 11 11 11 12 12 12 12 12 12 12 12 12 12 12
9 9 9 9 9 8 8 8 8 8 9 9 9 9 10 10 9 9 9 9 9 9 10 10 10 11 11 11 12 12 12 12 12 12 12 12 12 12
8 8 8 8 8 8 8 8 8 8 8 8 8 9 9 9 9 9 9 9 9 9 10 10 10 10 10 10 11 11 12 12 12 12 12 12 11 11
8 8 8 8 7 7 8 8 8 8 8 8 8 8 8 8 8 8 9 9 9 9 9 10 10 10 10 10 10 11 11 11 11 11 11 11 11 11
7 7 7 7 7 7 7 7 7 7 7 7 7 7 7 7 7 7 8 8 8 9 9 9 9 9 9 10 10 10 10 11 11 11 11 11 11 10
7 7 7 7 7 7 7 7 7 6 6 6 6 6 6 6 6 7 7 7 7 7 8 9 9 9 9 9 9 9 10 10 11 11 11 10 10 10
6 6 6 6 6 6 6 6 6 6 5 5 5 5 5 5 5 6 6 6 6 7 7 8 8 8 8 8 9 9 9 10 10 10 10 10 10 10
6 6 5 5 5 5 5 5 5 5 5 4 4 4 4 5 5 5 5 5 6 6 6 7 7 7 7 8 8 9 9 9 9 9 9 9 9 10
5 5 5 5 5 4 4 4 4 4 4 4 4 4 4 4 4 4 4 5 5 5 6 6 6 7 7 7 8 8 9 9 9 9 9 9 9 9
5 5 4 4 4 4 4 4 3 3 3 3 3 3 3 3 3 4 4 4 4 5 5 6 6 6 7 7 7 8 8 8 9 9 9 8 8 8
4 4 4 4 4 4 3 3 3 3 3 3 3 3 3 3 3 3 3 4 4 4 5 5 6 6 6 6 7 7 7 8 8 8 8 8 8 8
4 4 4 3 3 3 3 3 3 3 3 3 3 3 2 3 3 3 3 3 4 4 4 5 5 5 6 6 6 7 7 7 7 7 7 7 8 8
Wind_Speed
3 3 2 2 1 0 0 1 1 2 3 3 3 4 5 5 5 4 4 5 4 4 3 4 4 4 5 6 6 7 9 10 11 13 13 13 12 12
3 3 3 2 2 1 0 0 1 1 2 3 3 3 4 5 6 4 4 5 5 5 4 4 5 5 6 6 6 7 7 9 10 11 12 12 12 12
4 3 4 3 3 3 2 1 0 1 3 4 3 3 3 4 5 5 5 4 5 5 5 5 6 6 7 7 7 7 7 8 9 11 12 12 12 12
4 4 4 3 3 3 2 2 1 1 2 4 4 3 3 4 4 4 4 4 5 6 6 6 7 7 8 8 8 8 8 8 9 9 10 12 12 12
3 3 4 4 4 3 3 3 2 2 2 3 4 3 3 3 3 4 4 3 5 6 7 7 8 8 9 9 9 9 9 10 10 10 10 10 11 11
4 3 3 3 3 3 3 3 3 2 2 3 4 4 3 3 2 3 4 3 4 4 5 6 7 9 10 10 10 11 11 11 12 12 12 11 11 11
5 4 4 5 5 4 3 3 2 2 2 3 4 4 4 3 3 3 4 5 4 3 3 4 4 4 6 9 10 11 12 12 12 13 13 13 12 12
5 5 6 5 8 8 8 6 4 3 3 3 4 5 6 5 4 4 4 4 4 3 3 4 3 5 5 7 10 12 13 13 13 13 13 13 13 13
4 5 6 7 8 5 8 9 7 8 7 5 6 7 7 6 5 5 5 6 7 4 3 5 4 5 5 8 11 13 13 14 14 14 14 13 12 12
4 4 5 6 7 7 6 7 7 7 8 6 7 9 9 7 6 7 7 7 6 4 4 5 4 5 5 6 10 12 13 13 14 14 14 14 13 13
5 5 5 6 11 11 6 7 9 9 10 12 14 14 16 15 10 5 5 5 6 5 4 5 4 4 4 5 7 11 12 13 13 13 14 14 14 13
5 6 8 10 12 12 6 6 8 10 9 10 10 12 11 11 12 8 7 7 6 5 4 5 4 3 3 3 4 6 8 11 13 13 13 14 14 10
5 5 6 12 14 14 11 7 11 12 8 8 8 7 7 7 7 7 7 8 8 8 5 4 4 4 4 3 3 5 6 5 7 8 12 14 14 12
5 5 7 13 14 15 11 12 15 13 6 6 7 7 7 7 8 8 9 10 11 11 9 7 6 6 6 5 4 3 4 5 6 6 7 10 12 14
5 10 12 14 13 10 12 15 12 6 5 6 8 8 7 8 8 7 8 9 10 11 12 11 9 8 7 8 6 5 4 4 6 6 6 6 6 7
6 9 12 12 8 9 10 9 6 6 6 7 8 8 7 7 8 7 8 7 7 8 8 11 11 11 10 8 7 7 6 6 6 7 6 5 5 7
7 5 5 5 6 6 6 6 6 6 6 6 7 8 9 9 9 7 6 6 8 8 7 5 6 8 9 8 8 8 7 6 7 7 6 6 5 7
7 5 6 6 7 7 7 8 6 6 7 7 8 8 9 9 9 8 7 8 9 8 8 6 5 5 5 6 9 9 8 7 7 8 6 6 6 6
4 5 6 7 8 7 7 8 8 8 7 7 8 9 9 9 9 9 9 9 9 9 8 7 7 7 9 10 6 9 9 7 7 7 7 6 7 7
4 6 7 8 8 8 8 8 8 8 8 8 8 9 9 10 10 10 9 10 10 9 9 7 8 8 10 10 6 5 9 9 8 8 6 3 2 3
6 7 7 8 8 8 8 9 9 9 9 9 9 9 9 9 10 10 10 12 11 10 10 10 8 8 6 4 4 4 4 7 10 8 8 6 4 4
8 8 8 8 8 9 9 9 9 9 9 9 9 9 9 9 11 12 11 11 10 10 10 8 6 5 5 8 8 6 4 3 3 6 7 7 7 9
9 8 8 9 9 8 8 9 11 10 9 10 10 10 10 10 10 11 11 11 11 11 9 8 6 5 6 7 7 6 7 6 4 4 1 1 5 6
Wind_Direction
4 2 359 342 357 328 215 174 142 339 318 311 320 327 338 334 332 332 327 325 311 289 270 245 221 219 229 235 235 228 219 214 211 210 209 210 211 212
5 9 360 344 352 359 2 210 182 196 274 291 287 302 321 325 325 316 304 307 302 292 276 249 227 222 225 230 234 236 228 221 214 210 210 209 211 213
6 10 355 354 357 356 360 3 283 199 259 291 283 302 308 313 322 322 308 296 294 286 277 259 240 235 234 235 235 234 230 222 217 216 215 211 212 214
348 355 344 354 353 348 353 342 316 250 238 287 300 306 298 300 303 307 309 298 287 282 269 257 247 240 236 235 232 229 227 221 218 218 219 218 218 218
349 347 335 348 339 333 332 327 315 314 265 274 296 296 293 301 308 303 298 295 288 277 265 257 249 242 235 230 228 225 224 222 220 219 219 221 221 221
352 346 338 336 323 322 327 316 314 317 313 301 300 301 293 301 300 299 306 296 285 283 273 262 251 243 237 230 229 227 223 221 221 221 221 222 222 221
347 342 337 340 342 337 332 315 319 311 310 306 301 307 301 305 295 289 293 298 287 254 258 262 255 251 247 238 231 228 224 221 221 221 220 220 221 223
339 331 326 331 337 336 326 319 312 298 288 283 286 285 285 280 281 281 281 293 290 259 232 255 231 245 247 237 232 226 223 222 221 221 220 219 219 218
325 324 331 333 333 317 321 323 308 297 284 274 272 273 276 271 269 278 271 264 263 261 240 260 239 241 246 239 232 228 226 225 223 219 217 215 212 210
318 309 306 311 319 322 318 318 307 299 284 279 265 269 272 268 254 261 268 275 274 257 225 252 244 240 242 241 232 225 223 222 221 219 216 213 209 206
321 321 318 309 318 327 320 308 306 303 299 291 286 282 280 278 271 269 266 269 279 270 227 232 241 241 237 237 234 222 217 214 213 213 212 209 205 202
319 317 322 322 322 326 314 300 300 299 303 307 302 297 288 280 273 254 245 253 265 267 229 218 231 223 244 234 222 220 216 215 212 211 209 204 197 193
311 310 310 320 320 320 315 296 294 302 300 296 296 296 293 285 275 260 248 243 250 256 237 217 237 226 233 240 229 217 210 208 205 208 207 202 195 187
296 295 299 315 317 317 315 308 309 313 303 300 296 292 290 289 283 273 262 254 250 254 251 228 239 232 232 245 241 216 210 205 199 203 202 196 196 196
296 304 310 314 316 313 310 313 315 307 297 295 294 291 285 281 283 282 276 269 265 260 255 244 237 235 231 237 237 218 213 211 199 197 196 195 196 189
310 310 314 314 307 301 308 310 303 291 292 284 288 289 291 289 285 279 279 279 278 277 261 247 238 233 237 235 230 226 213 201 195 195 190 195 192 192
306 306 310 311 313 309 304 299 296 299 297 289 289 295 296 293 291 285 276 277 273 275 279 272 250 238 238 228 232 227 215 213 203 192 187 197 206 199
314 303 301 298 298 299 300 301 296 293 290 289 289 288 290 291 293 291 281 273 270 270 269 266 256 254 254 252 226 222 215 210 202 191 188 197 212 207
301 290 292 292 289 288 288 291 293 292 289 288 289 290 290 290 292 292 287 279 273 270 266 259 249 242 247 250 231 209 206 201 191 194 195 199 208 205
274 278 283 285 286 285 284 286 288 291 289 286 286 286 287 288 288 288 286 280 276 274 271 259 246 241 243 249 243 236 206 196 194 196 190 176 167 150
279 276 276 278 282 282 281 281 282 284 285 285 284 283 283 285 285 284 284 280 276 272 266 262 251 247 263 248 233 240 226 206 196 190 180 171 172 177
273 275 276 276 277 279 281 281 282 282 283 283 283 282 279 279 281 282 281 280 276 271 271 270 251 239 252 247 236 227 218 188 170 173 182 185 181 188
270 271 273 276 277 278 279 280 280 282 281 281 282 282 281 281 280 279 278 276 275 273 272 271 257 247 249 248 239 223 202 183 166 148 177 259 201 190
Height
1543 1542 1541 1540 1539 1538 1537 1536 1536 1533 1532 1532 1532 1531 1531 1530 1530 1530 1530 1530 1530 1531 1531 1532 1533 1535 1536 1537 1539 1541 1542 1544 1545 1547 1549 1551 1553 1554
1543 1542 1541 1540 1539 1538 1537 1536 1535 1534 1532 1531 1531 1530 1530 1529 1529 1528 1528 1528 1528 1528 1529 1530 1530 1532 1533 1534 1535 1537 1539 1540 1542 1544 1545 1547 1549 1551
1543 1542 1540 1539 1538 1537 1536 1535 1534 1533 1531 1530 1529 1529 1528 1527 1527 1526 1526 1525 1525 1526 1526 1526 1527 1528 1529 1530 1532 1533 1535 1536 1538 1540 1541 1543 1545 1547
1542 1541 1540 1539 1537 1536 1535 1534 1533 1532 1530 1528 1527 1526 1526 1525 1524 1523 1523 1522 1522 1522 1522 1523 1523 1524 1525 1526 1528 1529 1530 1532 1534 1535 1537 1539 1541 1542
1541 1540 1538 1537 1536 1535 1533 1532 1531 1530 1528 1527 1525 1524 1523 1522 1521 1520 1520 1519 1519 1519 1519 1519 1520 1520 1521 1522 1523 1525 1526 1527 1529 1530 1532 1534 1536 1537
1539 1538 1537 1536 1534 1533 1532 1530 1529 1527 1526 1524 1522 1521 1520 1519 1518 1517 1516 1515 1515 1515 1515 1515 1515 1516 1517 1518 1519 1520 1521 1522 1524 1525 1527 1529 1530 1532
1538 1536 1535 1534 1533 1531 1530 1528 1526 1525 1523 1521 1520 1518 1517 1516 1515 1513 1512 1511 1510 1511 1510 1510 1511 1511 1512 1513 1514 1515 1516 1517 1518 1520 1521 1523 1525 1527
1535 1534 1533 1531 1530 1529 1527 1526 1524 1522 1520 1518 1516 1515 1513 1512 1511 1510 1508 1507 1505 1506 1506 1505 1506 1505 1506 1507 1508 1509 1510 1511 1513 1514 1516 1517 1519 1521
1533 1531 1530 1528 1527 1525 1523 1522 1521 1519 1518 1516 1513 1511 1509 1508 1507 1505 1504 1502 1501 1501 1501 1499 1500 1500 1501 1501 1502 1503 1504 1506 1507 1508 1510 1511 1513 1515
1530 1528 1526 1524 1523 1521 1519 1517 1516 1515 1513 1511 1509 1507 1505 1504 1502 1501 1499 1497 1495 1496 1496 1494 1494 1494 1495 1495 1496 1497 1498 1500 1501 1502 1504 1505 1507 1508
1527 1525 1523 1521 1519 1517 1515 1512 1510 1509 1507 1505 1503 1501 1500 1498 1497 1495 1493 1492 1489 1488 1490 1488 1487 1488 1488 1488 1490 1491 1492 1493 1495 1496 1498 1499 1501 1502
1524 1522 1520 1517 1515 1513 1510 1508 1505 1502 1500 1498 1496 1494 1493 1492 1491 1489 1487 1485 1483 1481 1482 1483 1481 1482 1481 1481 1483 1484 1486 1487 1488 1490 1491 1493 1494 1496
1520 1517 1515 1513 1511 1508 1506 1503 1500 1497 1494 1491 1489 1487 1485 1484 1483 1482 1481 1479 1477 1475 1476 1476 1475 1475 1475 1474 1475 1477 1478 1480 1481 1483 1485 1486 1488 1489
1516 1513 1511 1508 1506 1503 1501 1498 1495 1492 1488 1485 1482 1480 1478 1476 1475 1473 1472 1471 1470 1468 1468 1469 1468 1468 1468 1467 1468 1469 1471 1472 1474 1476 1478 1480 1481 1483
1512 1509 1507 1504 1501 1498 1495 1493 1489 1486 1483 1479 1476 1473 1471 1468 1466 1465 1463 1462 1460 1460 1460 1460 1460 1460 1461 1460 1460 1461 1463 1464 1466 1468 1470 1472 1474 1476
1507 1504 1502 1499 1496 1493 1490 1487 1484 1481 1477 1474 1470 1467 1464 1461 1459 1457 1454 1453 1451 1450 1450 1451 1451 1452 1451 1451 1452 1453 1455 1456 1458 1461 1463 1465 1467 1469
1502 1499 1496 1492 1489 1486 1483 1480 1477 1474 1471 1468 1464 1460 1457 1454 1451 1449 1447 1445 1443 1441 1440 1442 1442 1443 1443 1443 1443 1444 1446 1448 1451 1453 1455 1457 1459 1462
1497 1493 1490 1487 1483 1480 1477 1474 1471 1468 1465 1461 1458 1454 1451 1447 1444 1442 1440 1438 1435 1433 1433 1433 1434 1433 1433 1433 1435 1436 1438 1440 1443 1445 1447 1449 1451 1454
1492 1488 1485 1481 1478 1475 1471 1468 1464 1461 1458 1455 1451 1448 1444 1440 1437 1434 1432 1430 1427 1426 1425 1425 1425 1426 1425 1423 1424 1428 1430 1432 1434 1437 1439 1442 1444 1448
1486 1483 1479 1476 1472 1469 1465 1461 1458 1454 1451 1448 1444 1441 1438 1434 1430 1427 1425 1422 1419 1418 1416 1416 1417 1417 1417 1417 1417 1418 1422 1424 1426 1429 1431 1435 1438 1441
1480 1476 1473 1470 1466 1462 1458 1455 1451 1447 1444 1440 1437 1434 1430 1427 1423 1420 1417 1414 1412 1409 1408 1407 1407 1409 1409 1410 1409 1409 1413 1417 1419 1421 1424 1427 1430 1433
1473 1470 1466 1463 1459 1455 1451 1447 1443 1440 1436 1433 1429 1426 1423 1420 1416 1412 1409 1406 1403 1401 1399 1399 1399 1400 1400 1401 1400 1402 1404 1408 1411 1414 1418 1420 1422 1425
1466 1462 1459 1455 1451 1448 1444 1440 1436 1432 1429 1425 1421 1418 1415 1412 1408 1405 1401 1399 1395 1393 1392 1391 1391 1391 1391 1392 1393 1394 1397 1400 1403 1406 1410 1413 1417 1421